FW2897 Weather Reports


Display with metric or nautical units.
time (UTC)temp
F
wind
direction
speed
MPH
gust
MPH
rain 1hr
in
rain 24hr
in
rain mn
in
humidity
%
barometer
mb
20210614115306 69 228 1.0 4.0 0.00 0.00 0.00 82 1011.6
20210614114805 69 112 1.0 4.0 0.00 0.00 0.00 83 1011.6
20210614114305 68 255 1.0 4.0 0.00 0.00 0.00 83 1011.7
20210614113807 68 210 1.0 2.0 0.00 0.00 0.00 83 1011.7
20210614113239 68 191 1.0 2.0 0.00 0.00 0.00 83 1011.7
20210614112736 68 159 1.0 4.0 0.00 0.00 0.00 83 1011.6
20210614112210 68 168 1.0 4.0 0.00 0.00 0.00 83 1011.6
20210614111707 68 162 1.0 3.0 0.00 0.00 0.00 83 1011.6
20210614111206 67 203 0.0 2.0 0.00 0.00 0.00 84 1011.6
20210614110701 67 91 0.0 3.0 0.00 0.00 0.00 85 1011.6
20210614110158 67 221 0.0 3.0 0.00 0.00 0.00 85 1011.6
20210614105653 67 247 0.0 1.0 0.00 0.00 0.00 85 1011.6
20210614105151 66 186 0.0 1.0 0.00 0.00 0.00 86 1011.6
20210614104625 66 120 0.0 1.0 0.00 0.00 0.00 86 1011.7
20210614104124 66 199 0.0 0.0 0.00 0.00 0.00 86 1011.7
20210614103553 66 199 0.0 0.0 0.00 0.00 0.00 86 1011.7
20210614103054 66 199 0.0 0.0 0.00 0.00 0.00 86 1011.8
20210614102547 66 199 0.0 0.0 0.00 0.00 0.00 85 1011.8
20210614102044 66 199 0.0 0.0 0.00 0.00 0.00 86 1011.9
20210614101517 66 199 0.0 1.0 0.00 0.00 0.00 85 1011.9
20210614101014 66 172 0.0 1.0 0.00 0.00 0.00 86 1011.8
20210614100509 66 209 0.0 0.0 0.00 0.00 0.00 86 1011.8
20210614100011 66 209 0.0 0.0 0.00 0.00 0.00 85 1011.7
20210614095503 66 195 0.0 0.0 0.00 0.00 0.00 85 1011.7
20210614095002 66 195 0.0 0.0 0.00 0.00 0.00 85 1011.8
20210614094433 66 221 0.0 1.0 0.00 0.00 0.00 85 1011.8
20210614093930 66 223 0.0 1.0 0.00 0.00 0.00 85 1011.8
20210614093420 66 193 0.0 3.0 0.00 0.00 0.00 85 1011.8
20210614092919 66 229 0.0 3.0 0.00 0.00 0.00 85 1011.8
20210614092419 66 132 0.0 1.0 0.00 0.00 0.00 85 1011.8
20210614091916 66 96 0.0 1.0 0.00 0.00 0.00 84 1011.8
20210614091413 66 154 0.0 0.0 0.00 0.00 0.00 84 1011.8
20210614090913 66 224 0.0 0.0 0.00 0.00 0.00 85 1011.8
20210614090413 66 233 0.0 0.0 0.00 0.00 0.00 85 1011.9
20210614085914 66 289 0.0 0.0 0.00 0.00 0.00 85 1011.8
20210614085347 66 289 0.0 0.0 0.00 0.00 0.00 85 1011.8
20210614084847 66 289 0.0 0.0 0.00 0.00 0.00 85 1011.8
20210614084318 66 289 0.0 0.0 0.00 0.00 0.00 85 1011.7
20210614083814 66 289 0.0 2.0 0.00 0.00 0.00 85 1011.6
20210614083247 66 289 0.0 2.0 0.00 0.00 0.00 85 1011.6
20210614082745 65 221 0.0 4.0 0.00 0.00 0.00 85 1011.5
20210614082219 66 183 1.0 4.0 0.00 0.00 0.00 84 1011.4
20210614081715 66 230 1.0 4.0 0.00 0.00 0.00 84 1011.3
20210614081150 66 207 3.0 7.0 0.00 0.00 0.00 84 1011.2
20210614080622 66 200 3.0 10.0 0.00 0.00 0.00 84 1010.9
20210614080120 66 221 3.0 10.0 0.00 0.00 0.00 84 1010.8
20210614075553 66 243 3.0 7.0 0.00 0.00 0.00 83 1010.8
20210614075051 66 208 3.0 8.0 0.00 0.00 0.00 83 1010.8
20210614074526 66 243 3.0 8.0 0.00 0.00 0.00 83 1010.8
20210614074022 66 233 3.0 8.0 0.00 0.00 0.00 82 1010.8
20210614073523 66 131 3.0 9.0 0.00 0.00 0.00 82 1010.9
20210614073020 66 240 2.0 9.0 0.00 0.00 0.00 82 1010.9
20210614072450 66 119 1.0 6.0 0.00 0.00 0.00 82 1010.9
20210614071930 66 116 1.0 4.0 0.00 0.00 0.00 81 1011.0
20210614071427 66 134 1.0 4.0 0.00 0.00 0.00 81 1011.3
20210614070930 67 120 1.0 5.0 0.00 0.00 0.00 80 1011.6
20210614070409 67 191 1.0 5.0 0.00 0.00 0.00 80 1011.8
20210614065910 67 244 0.0 2.0 0.00 0.00 0.00 80 1012.0
20210614065338 67 193 0.0 2.0 0.00 0.00 0.00 80 1012.3
20210614064836 67 127 0.0 2.0 0.00 0.00 0.00 80 1012.5
20210614064337 67 174 0.0 0.0 0.00 0.00 0.00 80 1012.5
20210614063835 67 190 0.0 1.0 0.00 0.00 0.00 81 1012.5
20210614063338 67 190 0.0 1.0 0.00 0.00 0.00 80 1012.5
20210614062826 67 240 0.0 3.0 0.00 0.00 0.00 81 1012.5
20210614062327 67 202 0.0 3.0 0.00 0.00 0.00 81 1012.6
20210614061825 67 207 0.0 2.0 0.00 0.00 0.00 82 1012.5
20210614061305 67 208 0.0 2.0 0.00 0.00 0.00 82 1012.5
20210614060745 67 208 0.0 2.0 0.00 0.00 0.00 82 1012.6
20210614060225 67 121 0.0 2.0 0.00 0.00 0.00 82 1012.5
20210614055710 67 238 0.0 1.0 0.00 0.00 0.00 82 1012.7
20210614055207 67 237 0.0 1.0 0.00 0.00 0.00 82 1012.8
20210614054706 67 202 0.0 2.0 0.00 0.00 0.00 83 1012.8
20210614054206 67 213 0.0 2.0 0.00 0.00 0.00 82 1012.9
20210614053650 67 155 0.0 2.0 0.00 0.00 0.00 83 1012.8
20210614053150 67 155 0.0 2.0 0.00 0.00 0.00 83 1012.8
20210614052653 67 252 0.0 1.0 0.00 0.00 0.00 84 1012.8
20210614052130 67 254 0.0 2.0 0.00 0.00 0.00 84 1012.8
20210614051628 67 227 0.0 2.0 0.00 0.00 0.00 84 1012.8
20210614051128 67 126 0.0 0.0 0.00 0.00 0.00 84 1012.8
20210614050602 67 126 0.0 0.0 0.00 0.00 0.00 84 1012.8
20210614050050 67 126 0.0 0.0 0.00 0.00 0.00 84 1012.8
20210614045516 67 126 0.0 0.0 0.00 0.00 0.00 84 1012.9
20210614044943 67 126 0.0 1.0 0.00 0.00 0.00 84 1012.8
20210614044440 67 126 0.0 1.0 0.00 0.00 0.00 84 1013.0
20210614043910 67 188 0.0 0.0 0.00 0.00 0.00 84 1013.1
20210614043406 67 188 0.0 0.0 0.00 0.00 0.00 84 1013.2
20210614042850 67 188 0.0 0.0 0.00 0.00 0.00 84 1013.3
20210614042315 67 146 0.0 0.0 0.00 0.00 0.00 83 1013.1
20210614041814 67 146 0.0 1.0 0.00 0.00 0.00 83 1013.1
20210614041250 67 146 0.0 1.0 0.00 0.00 0.00 83 1012.9
20210614040724 67 145 0.0 1.0 0.00 0.00 0.00 83 1012.9
20210614040158 67 143 0.0 1.0 0.00 0.00 0.00 83 1012.8
20210614035633 67 122 0.0 1.0 0.00 0.00 0.00 82 1012.8
20210614035129 67 107 0.0 2.0 0.00 0.00 0.00 82 1012.9
20210614034624 68 186 1.0 3.0 0.00 0.00 0.00 82 1013.0
20210614034124 68 224 0.0 3.0 0.00 0.00 0.00 82 1012.9
20210614033614 68 230 0.0 2.0 0.00 0.00 0.00 82 1012.8
20210614033113 68 255 1.0 3.0 0.00 0.00 0.00 82 1012.8
20210614032606 68 181 1.0 4.0 0.00 0.00 0.00 82 1012.8
20210614032108 68 219 1.0 5.0 0.00 0.00 0.00 82 1012.9
20210614031601 68 198 1.0 5.0 0.00 0.00 0.00 82 1013.0
20210614031100 68 243 1.0 3.0 0.00 0.00 0.00 82 1013.0
20210614030544 68 142 0.0 4.0 0.00 0.00 0.00 82 1013.1
20210614030059 68 199 0.0 4.0 0.00 0.00 0.00 83 1013.2
20210614025542 68 93 0.0 2.0 0.00 0.00 0.00 83 1013.3
20210614025046 68 77 0.0 3.0 0.00 0.00 0.00 83 1013.2
20210614024516 68 239 0.0 3.0 0.00 0.00 0.00 83 1013.2
20210614024015 68 165 0.0 2.0 0.00 0.00 0.00 83 1013.1
20210614023445 68 205 0.0 2.0 0.00 0.00 0.00 83 1013.1
20210614022944 68 200 0.0 1.0 0.00 0.00 0.00 83 1013.0
20210614022417 68 210 0.0 5.0 0.00 0.00 0.00 83 1013.1
20210614021912 68 260 0.0 5.0 0.00 0.00 0.00 83 1013.0
20210614021407 68 260 1.0 5.0 0.00 0.00 0.00 82 1013.2
20210614020907 68 203 1.0 5.0 0.00 0.00 0.00 82 1013.2
20210614020354 69 198 1.0 3.0 0.00 0.00 0.00 82 1013.2
20210614015855 69 239 1.0 3.0 0.00 0.00 0.00 82 1013.2
20210614015352 69 126 1.0 3.0 0.00 0.00 0.00 81 1013.2
20210614014847 69 260 1.0 5.0 0.00 0.00 0.00 81 1013.2
20210614014322 69 134 1.0 4.0 0.00 0.00 0.00 80 1013.3
20210614013810 69 256 1.0 4.0 0.00 0.00 0.00 80 1013.2
20210614013311 69 125 1.0 4.0 0.00 0.00 0.00 80 1013.2
20210614012808 69 240 0.0 4.0 0.00 0.00 0.00 79 1013.3
20210614012244 69 242 0.0 2.0 0.00 0.00 0.00 80 1013.4
20210614011739 69 160 1.0 4.0 0.00 0.00 0.00 79 1013.3
20210614011211 69 96 1.0 7.0 0.00 0.00 0.00 79 1013.1
20210614010709 69 160 1.0 7.0 0.00 0.00 0.00 79 1013.1
20210614010200 69 214 0.0 2.0 0.00 0.00 0.00 79 1013.2
20210614005700 69 193 0.0 2.0 0.00 0.00 0.00 79 1013.2
20210614005153 69 127 0.0 4.0 0.00 0.00 0.00 79 1012.9
20210614004651 69 143 1.0 4.0 0.00 0.00 0.00 79 1012.9
20210614004145 69 120 0.0 2.0 0.00 0.00 0.00 79 1012.7
20210614003644 69 89 0.0 5.0 0.00 0.00 0.00 79 1012.6
20210614003139 70 227 0.0 5.0 0.00 0.00 0.00 79 1012.5
20210614002636 70 136 1.0 3.0 0.00 0.00 0.00 78 1012.6
20210614002109 70 96 0.0 2.0 0.00 0.00 0.00 78 1012.6
20210614001608 70 243 0.0 3.0 0.00 0.00 0.00 78 1012.6
20210614001102 70 182 0.0 3.0 0.00 0.00 0.00 77 1012.6
20210614000600 70 127 1.0 3.0 0.00 0.00 0.00 77 1012.5
20210614000051 70 165 1.0 4.0 0.00 0.00 0.00 77 1012.5
20210613235537 70 160 2.0 7.0 0.00 0.00 0.00 77 1012.4
20210613235011 70 231 1.0 7.0 0.00 0.00 0.00 77 1012.3
20210613234513 70 206 0.0 3.0 0.00 0.00 0.00 77 1012.4
20210613233951 71 209 0.0 4.0 0.00 0.00 0.00 78 1012.4
20210613233448 71 253 1.0 4.0 0.00 0.00 0.00 79 1012.4
20210613232947 71 240 1.0 3.0 0.00 0.00 0.00 78 1012.4
20210613232421 71 243 1.0 3.0 0.00 0.00 0.00 79 1012.2
20210613231915 71 171 1.0 3.0 0.00 0.00 0.00 78 1012.2
20210613231416 71 155 1.0 4.0 0.00 0.00 0.00 78 1012.4
20210613230915 71 137 1.0 5.0 0.00 0.00 0.00 78 1012.4
20210613230414 71 98 2.0 5.0 0.00 0.00 0.00 79 1012.4
20210613225902 71 153 2.0 5.0 0.00 0.00 0.00 78 1012.6
20210613225403 71 117 2.0 5.0 0.00 0.00 0.00 78 1012.5
20210613224845 71 44 1.0 5.0 0.00 0.00 0.00 78 1012.6
20210613224343 71 203 1.0 4.0 0.00 0.00 0.00 78 1012.5
20210613223834 72 203 1.0 5.0 0.00 0.00 0.00 78 1012.6
20210613223334 72 111 1.0 5.0 0.00 0.00 0.00 78 1012.7
20210613222813 72 192 2.0 5.0 0.00 0.00 0.00 78 1012.5
20210613222251 72 106 1.0 5.0 0.00 0.00 0.00 77 1012.6
20210613221743 73 232 1.0 4.0 0.00 0.00 0.00 77 1012.5
20210613221240 73 165 1.0 4.0 0.00 0.00 0.00 77 1012.5
20210613220740 73 176 1.0 4.0 0.00 0.00 0.00 77 1012.3
20210613220237 73 127 1.0 6.0 0.00 0.00 0.00 77 1012.4
20210613215735 73 221 1.0 6.0 0.00 0.00 0.00 78 1012.3
20210613215236 73 198 2.0 6.0 0.00 0.00 0.00 77 1012.5
20210613214716 74 133 2.0 6.0 0.00 0.00 0.00 77 1012.4
20210613214218 74 148 1.0 4.0 0.00 0.00 0.00 77 1012.4
20210613213712 74 134 1.0 4.0 0.00 0.00 0.00 76 1012.4
20210613213211 74 158 1.0 4.0 0.00 0.00 0.00 77 1012.5
20210613212709 75 206 1.0 6.0 0.00 0.00 0.00 77 1012.4
20210613212207 75 245 1.0 6.0 0.00 0.00 0.00 76 1012.5
20210613211644 75 82 1.0 3.0 0.00 0.00 0.00 78 1012.4
20210613211114 75 91 1.0 5.0 0.00 0.00 0.00 77 1012.4
20210613210611 75 225 1.0 5.0 0.00 0.00 0.00 78 1012.6
20210613210059 75 115 1.0 4.0 0.00 0.00 0.00 78 1012.7
20210613205521 75 131 1.0 4.0 0.00 0.00 0.00 79 1012.7
20210613204954 75 318 1.0 3.0 0.00 0.00 0.00 79 1012.7
20210613204446 75 276 1.0 4.0 0.00 0.00 0.00 78 1012.8
20210613203943 75 210 1.0 4.0 0.00 0.00 0.00 80 1012.8
20210613203416 75 184 1.0 3.0 0.00 0.00 0.00 80 1012.9
20210613202914 75 94 1.0 5.0 0.00 0.00 0.00 79 1012.9
20210613202346 75 122 1.0 5.0 0.00 0.00 0.00 78 1013.0
20210613201845 76 158 1.0 5.0 0.00 0.00 0.00 78 1013.0
20210613201316 76 138 2.0 5.0 0.00 0.00 0.00 78 1012.8
20210613200815 76 95 2.0 5.0 0.00 0.00 0.00 77 1012.8
20210613200246 76 153 1.0 4.0 0.00 0.00 0.00 77 1012.9
20210613195743 76 160 1.0 4.0 0.00 0.00 0.00 77 1013.0
20210613195218 76 104 1.0 4.0 0.00 0.00 0.00 77 1013.0
20210613194652 76 200 1.0 4.0 0.00 0.00 0.00 76 1013.0
20210613194151 76 115 1.0 4.0 0.00 0.00 0.00 76 1013.2
20210613193650 76 141 1.0 4.0 0.00 0.00 0.00 75 1013.0
20210613193150 77 146 1.0 4.0 0.00 0.00 0.00 74 1013.0
20210613192650 77 227 1.0 4.0 0.00 0.00 0.00 72 1013.1
20210613192150 77 243 2.0 4.0 0.00 0.00 0.00 72 1013.1
20210613191652 77 206 2.0 4.0 0.00 0.00 0.00 72 1013.2
20210613191121 77 214 2.0 4.0 0.00 0.00 0.00 71 1013.3
20210613190619 77 219 1.0 4.0 0.00 0.00 0.00 71 1013.4
20210613190107 78 256 1.0 4.0 0.00 0.00 0.00 70 1013.5
20210613185548 78 174 1.0 4.0 0.00 0.00 0.00 69 1013.6
20210613185049 78 245 2.0 4.0 0.00 0.00 0.00 69 1013.6
20210613184539 78 4 2.0 6.0 0.00 0.00 0.00 68 1013.6
20210613184035 78 169 2.0 6.0 0.00 0.00 0.00 66 1013.4
20210613183511 79 129 2.0 5.0 0.00 0.00 0.00 66 1013.4
20210613182943 79 224 1.0 4.0 0.00 0.00 0.00 65 1013.5
20210613182442 79 248 1.0 4.0 0.00 0.00 0.00 65 1013.4
20210613181914 79 207 2.0 6.0 0.00 0.00 0.00 65 1013.5
20210613181413 79 164 2.0 6.0 0.00 0.00 0.00 64 1013.5
20210613180845 80 200 1.0 5.0 0.00 0.00 0.00 64 1013.7
20210613180340 79 318 1.0 5.0 0.00 0.00 0.00 66 1013.7
20210613175838 80 235 2.0 5.0 0.00 0.00 0.00 64 1013.7
20210613175334 80 307 2.0 8.0 0.00 0.00 0.00 62 1013.7
20210613174807 80 276 2.0 8.0 0.00 0.00 0.00 63 1013.6
20210613174304 81 214 2.0 7.0 0.00 0.00 0.00 63 1013.5
20210613173737 80 257 2.0 8.0 0.00 0.00 0.00 63 1013.7
20210613173236 80 210 2.0 8.0 0.00 0.00 0.00 62 1013.6
20210613172719 80 180 1.0 5.0 0.00 0.00 0.00 65 1013.5
20210613172217 80 281 1.0 5.0 0.00 0.00 0.00 62 1013.5
20210613171711 80 317 1.0 5.0 0.00 0.00 0.00 64 1013.5
20210613171209 80 85 2.0 5.0 0.00 0.00 0.00 62 1013.6
20210613170703 80 224 2.0 7.0 0.00 0.00 0.00 65 1013.6
20210613170159 79 141 3.0 7.0 0.00 0.00 0.00 62 1013.6
20210613165635 79 223 3.0 7.0 0.00 0.00 0.00 62 1013.7
20210613165107 80 297 2.0 6.0 0.00 0.00 0.00 61 1013.7
20210613164543 80 216 2.0 5.0 0.00 0.00 0.00 61 1013.8
20210613164012 80 236 2.0 6.0 0.00 0.00 0.00 62 1013.7
20210613163509 80 113 2.0 6.0 0.00 0.00 0.00 63 1013.7
20210613162943 80 230 2.0 6.0 0.00 0.00 0.00 64 1013.9
20210613162442 80 236 2.0 6.0 0.00 0.00 0.00 63 1013.8
20210613161919 79 153 2.0 6.0 0.00 0.00 0.00 63 1013.8
20210613161352 79 97 2.0 6.0 0.00 0.00 0.00 63 1013.8
20210613160839 79 256 3.0 8.0 0.00 0.00 0.00 64 1013.8
20210613160308 78 238 2.0 8.0 0.00 0.00 0.00 64 1014.1
20210613155741 78 174 2.0 7.0 0.00 0.00 0.00 66 1014.2
20210613155241 78 237 2.0 6.0 0.00 0.00 0.00 64 1014.3
20210613154741 78 245 2.0 6.0 0.00 0.00 0.00 64 1014.4
20210613154228 78 245 2.0 7.0 0.00 0.00 0.00 66 1014.4
20210613153700 78 180 3.0 6.0 0.00 0.00 0.00 66 1014.4
20210613153149 78 233 3.0 7.0 0.00 0.00 0.00 64 1014.5
20210613152650 78 224 3.0 7.0 0.00 0.00 0.00 63 1014.4
20210613152150 77 139 3.0 8.0 0.00 0.00 0.00 63 1014.4
20210613151647 77 185 2.0 8.0 0.00 0.00 0.00 64 1014.3
20210613151146 78 200 2.0 5.0 0.00 0.00 0.00 63 1014.3
20210613150631 77 269 2.0 6.0 0.00 0.00 0.00 63 1014.4
20210613150129 77 155 2.0 6.0 0.00 0.00 0.00 62 1014.5
20210613145612 77 205 2.0 7.0 0.00 0.00 0.00 62 1014.4
20210613145112 77 257 2.0 7.0 0.00 0.00 0.00 63 1014.4
20210613144611 76 307 2.0 6.0 0.00 0.00 0.00 64 1014.3
20210613144055 76 139 2.0 6.0 0.00 0.00 0.00 62 1014.4
20210613143555 76 238 2.0 5.0 0.00 0.00 0.00 62 1014.3
20210613143053 76 118 2.0 6.0 0.00 0.00 0.00 62 1014.4
20210613142554 76 195 2.0 6.0 0.00 0.00 0.00 63 1014.4
20210613142052 76 213 1.0 6.0 0.00 0.00 0.00 66 1014.7
20210613141550 76 262 1.0 3.0 0.00 0.00 0.00 69 1014.7
20210613141035 74 227 1.0 4.0 0.00 0.00 0.00 67 1014.6
20210613140504 74 209 2.0 5.0 0.00 0.00 0.00 67 1014.7
20210613140013 74 222 2.0 5.0 0.00 0.00 0.00 69 1014.7
20210613135438 74 235 1.0 5.0 0.00 0.00 0.00 68 1014.7
20210613134913 73 241 1.0 4.0 0.00 0.00 0.00 71 1014.6
20210613134347 73 111 2.0 4.0 0.00 0.00 0.00 72 1014.6
20210613133819 73 214 2.0 4.0 0.00 0.00 0.00 70 1014.6
20210613133315 74 214 1.0 3.0 0.00 0.00 0.00 70 1014.7
20210613132750 73 285 1.0 2.0 0.00 0.00 0.00 73 1014.7
20210613132249 72 293 1.0 3.0 0.00 0.00 0.00 74 1014.6
20210613131723 71 217 1.0 3.0 0.00 0.00 0.00 76 1014.6
20210613131201 71 226 1.0 3.0 0.00 0.00 0.00 78 1014.6
20210613130629 70 122 1.0 4.0 0.00 0.00 0.00 79 1014.5
20210613130127 69 138 1.0 4.0 0.00 0.00 0.00 82 1014.5
20210613125559 69 233 0.0 3.0 0.00 0.00 0.00 85 1014.5
20210613125057 69 229 0.0 3.0 0.00 0.00 0.00 85 1014.5
20210613124530 68 169 0.0 4.0 0.00 0.00 0.00 86 1014.5
20210613124005 68 217 1.0 4.0 0.00 0.00 0.00 86 1014.6
20210613123438 68 96 1.0 4.0 0.00 0.00 0.00 87 1014.5
20210613122935 68 87 1.0 4.0 0.00 0.00 0.00 88 1014.5
20210613122408 67 239 0.0 1.0 0.00 0.00 0.00 90 1014.4
20210613121845 67 212 0.0 0.0 0.00 0.00 0.00 89 1014.4
20210613121315 67 208 0.0 0.0 0.00 0.00 0.00 89 1014.5
20210613120813 67 120 0.0 0.0 0.00 0.00 0.00 90 1014.4
20210613120245 66 248 0.0 0.0 0.00 0.00 0.00 90 1014.6
20210613115743 66 248 0.0 0.0 0.00 0.00 0.00 90 1014.6